• En España
  • Lista de países
  • Para 7 días
  • Temperatura del agua
  • Mapa Satelital
  • El tiempo en el mapa
  • Informadores
  • user-avatar
    Iniciar sesión

    Tiempo cada hora Tashly-Kovali

    Hoy, 21 Octubre, Domingo

    Tiempo Temperatura Precipitaciones Viento Presión Humedad
    00:00 +3°C° 0 mm 3 mps 755 mmHg 92%
    01:00 +2°C° 0 mm 3 mps 755 mmHg 93%
    02:00 +3°C° 0 mm 2 mps 756 mmHg 94%
    03:00 +3°C° 0 mm 2 mps 756 mmHg 95%
    04:00 +2°C° 0 mm 2 mps 757 mmHg 95%
    05:00 +2°C° 0 mm 2 mps 757 mmHg 95%
    06:00 +2°C° 0 mm 2 mps 757 mmHg 96%
    07:00 +2°C° 0 mm 2 mps 758 mmHg 92%
    08:00 +3°C° 0 mm 2 mps 758 mmHg 88%
    09:00 +4°C° 0 mm 2 mps 759 mmHg 83%
    10:00 +5°C° 0 mm 2 mps 759 mmHg 77%
    11:00 +6°C° 0 mm 2 mps 759 mmHg 72%
    12:00 +6°C° 0 mm 2 mps 760 mmHg 66%
    13:00 +6°C° 0 mm 2 mps 760 mmHg 66%
    14:00 +6°C° 0 mm 2 mps 760 mmHg 66%
    15:00 +6°C° 0 mm 2 mps 760 mmHg 66%
    16:00 +5°C° 0 mm 2 mps 760 mmHg 70%
    17:00 +5°C° 0 mm 1 mps 761 mmHg 74%
    18:00 +4°C° 0 mm 1 mps 761 mmHg 77%
    19:00 +4°C° 0 mm 1 mps 761 mmHg 78%
    20:00 +4°C° 0 mm 1 mps 761 mmHg 79%
    21:00 +3°C° 0 mm 0 mps 761 mmHg 80%
    22:00 +2°C° 0 mm 0 mps 761 mmHg 82%
    23:00 +2°C° 0 mm 0 mps 761 mmHg 84%

    Mañana, 22 Octubre, Lunes

    Tiempo Temperatura Precipitaciones Viento Presión Humedad
    00:00 +1°C° 0 mm 0 mps 761 mmHg 85%
    01:00 +1°C° 0 mm 0 mps 762 mmHg 86%
    02:00 +1°C° 0 mm 0 mps 762 mmHg 87%
    03:00 +1°C° 0 mm 0 mps 762 mmHg 87%
    04:00 +2°C° 0 mm 1 mps 762 mmHg 88%
    05:00 +2°C° 0 mm 1 mps 761 mmHg 88%
    06:00 +2°C° 0 mm 1 mps 761 mmHg 89%
    07:00 +2°C° 0 mm 2 mps 761 mmHg 85%
    08:00 +3°C° 0 mm 2 mps 761 mmHg 82%
    09:00 +3°C° 0 mm 3 mps 761 mmHg 78%
    10:00 +4°C° 0 mm 3 mps 761 mmHg 74%
    11:00 +5°C° 0 mm 4 mps 760 mmHg 71%
    12:00 +6°C° 0 mm 4 mps 760 mmHg 67%
    13:00 +6°C° 0 mm 4 mps 759 mmHg 68%
    14:00 +6°C° 0 mm 4 mps 759 mmHg 69%
    15:00 +6°C° 0 mm 4 mps 758 mmHg 70%
    16:00 +5°C° 0 mm 4 mps 758 mmHg 74%
    17:00 +4°C° 0 mm 4 mps 757 mmHg 77%
    18:00 +2°C° 0 mm 5 mps 757 mmHg 80%
    19:00 +2°C° 0 mm 5 mps 757 mmHg 81%
    20:00 +2°C° 0 mm 5 mps 756 mmHg 82%
    21:00 +2°C° 0 mm 5 mps 756 mmHg 83%
    22:00 +2°C° 0 mm 5 mps 755 mmHg 85%
    23:00 +2°C° 0 mm 5 mps 755 mmHg 87%

    Pasado mañana, 23 Octubre, Martes

    Tiempo Temperatura Precipitaciones Viento Presión Humedad
    00:00 +2°C° 0 mm 5 mps 754 mmHg 89%
    01:00 +2°C° 0 mm 5 mps 754 mmHg 90%
    02:00 +2°C° 0 mm 5 mps 754 mmHg 92%
    03:00 +3°C° 0 mm 5 mps 753 mmHg 94%
    04:00 +3°C° 0 mm 5 mps 753 mmHg 93%
    05:00 +5°C° 0 mm 5 mps 752 mmHg 92%
    06:00 +5°C° 0 mm 5 mps 751 mmHg 90%
    07:00 +6°C° 0.1 mm 5 mps 751 mmHg 88%
    08:00 +5°C° 0.1 mm 6 mps 750 mmHg 85%
    09:00 +5°C° 0.1 mm 6 mps 750 mmHg 82%
    10:00 +5°C° 0.2 mm 6 mps 749 mmHg 80%
    11:00 +6°C° 0.2 mm 7 mps 749 mmHg 78%
    12:00 +6°C° 0.2 mm 7 mps 748 mmHg 76%
    13:00 +6°C° 0.4 mm 7 mps 747 mmHg 76%
    14:00 +6°C° 0.4 mm 7 mps 747 mmHg 75%
    15:00 +6°C° 0.4 mm 7 mps 746 mmHg 75%
    16:00 +6°C° 0.3 mm 7 mps 746 mmHg 77%
    17:00 +6°C° 0.3 mm 7 mps 745 mmHg 79%
    18:00 +6°C° 0.3 mm 7 mps 745 mmHg 81%
    19:00 +6°C° 0.2 mm 7 mps 744 mmHg 84%
    20:00 +7°C° 0.2 mm 6 mps 744 mmHg 86%
    21:00 +7°C° 0.2 mm 6 mps 744 mmHg 89%
    22:00 +7°C° 0.1 mm 5 mps 744 mmHg 91%
    23:00 +7°C° 0.1 mm 4 mps 744 mmHg 92%

    24 Octubre, Miércoles

    Tiempo Temperatura Precipitaciones Viento Presión Humedad
    00:00 +7°C° 0.1 mm 3 mps 744 mmHg 94%
    01:00 +5°C° 0 mm 3 mps 744 mmHg 94%
    02:00 +4°C° 0 mm 3 mps 744 mmHg 95%
    03:00 +5°C° 0 mm 2 mps 744 mmHg 95%
    04:00 +4°C° 0 mm 2 mps 744 mmHg 95%
    05:00 +4°C° 0 mm 2 mps 743 mmHg 95%
    06:00 +3°C° 0 mm 2 mps 743 mmHg 94%
    07:00 +3°C° 0 mm 3 mps 743 mmHg 90%
    08:00 +4°C° 0 mm 3 mps 743 mmHg 85%
    09:00 +5°C° 0 mm 4 mps 743 mmHg 80%
    10:00 +6°C° 0 mm 4 mps 743 mmHg 75%
    11:00 +7°C° 0 mm 5 mps 743 mmHg 70%
    12:00 +8°C° 0 mm 5 mps 743 mmHg 66%
    13:00 +8°C° 0 mm 5 mps 743 mmHg 66%
    14:00 +8°C° 0 mm 5 mps 742 mmHg 67%
    15:00 +8°C° 0 mm 4 mps 742 mmHg 68%
    16:00 +7°C° 0 mm 4 mps 743 mmHg 71%
    17:00 +6°C° 0 mm 4 mps 743 mmHg 74%
    18:00 +6°C° 0 mm 4 mps 743 mmHg 77%
    19:00 +6°C° 0 mm 4 mps 743 mmHg 77%
    20:00 +6°C° 0 mm 4 mps 743 mmHg 78%
    21:00 +6°C° 0 mm 4 mps 743 mmHg 79%
    22:00 +6°C° 0 mm 5 mps 742 mmHg 81%
    23:00 +6°C° 0 mm 5 mps 742 mmHg 82%

    25 Octubre, Jueves

    Tiempo Temperatura Precipitaciones Viento Presión Humedad
    00:00 +6°C° 0 mm 5 mps 742 mmHg 84%
    01:00 +6°C° 0.1 mm 5 mps 742 mmHg 85%
    02:00 +7°C° 0.1 mm 6 mps 741 mmHg 85%
    03:00 +7°C° 0.1 mm 6 mps 741 mmHg 85%
    04:00 +7°C° 0.1 mm 6 mps 741 mmHg 87%
    05:00 +8°C° 0.1 mm 6 mps 740 mmHg 89%
    06:00 +8°C° 0.1 mm 6 mps 740 mmHg 90%
    07:00 +8°C° 1.2 mm 7 mps 740 mmHg 91%
    08:00 +8°C° 1.2 mm 7 mps 740 mmHg 91%
    09:00 +9°C° 1.2 mm 7 mps 739 mmHg 91%
    10:00 +9°C° 0.9 mm 7 mps 739 mmHg 89%
    11:00 +9°C° 0.9 mm 7 mps 739 mmHg 87%
    12:00 +9°C° 0.9 mm 7 mps 739 mmHg 85%
    13:00 +9°C° 0.9 mm 7 mps 739 mmHg 86%
    14:00 +8°C° 0.9 mm 6 mps 739 mmHg 86%
    15:00 +8°C° 0.9 mm 5 mps 739 mmHg 87%
    16:00 +8°C° 0.9 mm 5 mps 738 mmHg 87%
    17:00 +8°C° 0.9 mm 5 mps 738 mmHg 86%
    18:00 +8°C° 0.9 mm 5 mps 737 mmHg 86%
    19:00 +9°C° 0.8 mm 5 mps 737 mmHg 86%
    20:00 +9°C° 0.8 mm 6 mps 736 mmHg 86%
    21:00 +9°C° 0.8 mm 6 mps 736 mmHg 86%
    22:00 +9°C° 0.2 mm 5 mps 736 mmHg 86%
    23:00 +9°C° 0.2 mm 5 mps 736 mmHg 86%

    26 Octubre, Viernes

    Tiempo Temperatura Precipitaciones Viento Presión Humedad
    00:00 +9°C° 0.2 mm 5 mps 736 mmHg 86%
    01:00 +8°C° 0 mm 4 mps 736 mmHg 84%
    02:00 +7°C° 0 mm 4 mps 736 mmHg 82%
    03:00 +7°C° 0 mm 3 mps 736 mmHg 80%
    04:00 +6°C° 0 mm 4 mps 736 mmHg 80%
    05:00 +5°C° 0 mm 4 mps 736 mmHg 80%
    06:00 +5°C° 0 mm 4 mps 736 mmHg 79%
    07:00 +5°C° 0 mm 5 mps 736 mmHg 77%
    08:00 +4°C° 0 mm 6 mps 736 mmHg 75%
    09:00 +5°C° 0 mm 7 mps 736 mmHg 72%
    10:00 +5°C° 0.1 mm 7 mps 736 mmHg 70%
    11:00 +5°C° 0.1 mm 8 mps 735 mmHg 69%
    12:00 +5°C° 0.1 mm 9 mps 735 mmHg 67%
    13:00 +5°C° 0 mm 9 mps 736 mmHg 68%
    14:00 +5°C° 0 mm 8 mps 736 mmHg 69%
    15:00 +5°C° 0 mm 8 mps 736 mmHg 70%
    16:00 +4°C° 0 mm 8 mps 737 mmHg 71%
    17:00 +4°C° 0 mm 7 mps 738 mmHg 73%
    18:00 +3°C° 0 mm 7 mps 738 mmHg 74%
    19:00 +3°C° 0 mm 7 mps 739 mmHg 75%
    20:00 +3°C° 0 mm 6 mps 740 mmHg 75%
    21:00 +2°C° 0 mm 6 mps 740 mmHg 76%
    22:00 +2°C° 0 mm 6 mps 741 mmHg 77%
    23:00 +1°C° 0 mm 5 mps 742 mmHg 78%
    Mostrar más